GW6909 Weather Reports


time (UTC)temp
C
wind
direction
speed
KPH
gust
KPH
rain 1hr
cm
rain 24hr
cm
rain mn
cm
humidity
%
barometer
mb
20260508145355 13 174 3.2 3.2 0.00 0.00 0.00 49 1021.1
20260508144852 13 82 0.0 0.0 0.00 0.00 0.00 51 1021.1
20260508144350 12 45 0.0 1.6 0.00 0.00 0.00 52 1021.1
20260508143847 12 45 0.0 0.0 0.00 0.00 0.00 49 1021.3
20260508143344 12 280 3.2 3.2 0.00 0.00 0.00 52 1021.4
20260508142841 12 47 1.6 1.6 0.00 0.00 0.00 52 1021.4
20260508142338 12 112 1.6 1.6 0.00 0.00 0.00 55 1021.0
20260508141834 12 295 1.6 3.2 0.00 0.00 0.00 58 1021.3
20260508141331 12 247 3.2 3.2 0.00 0.00 0.00 55 1021.3
20260508140829 11 89 0.0 1.6 0.00 0.00 0.00 58 1021.4
20260508140325 11 331 1.6 1.6 0.00 0.00 0.00 56 1021.4
20260508135821 11 297 1.6 3.2 0.00 0.00 0.00 56 1021.1
20260508135318 11 116 1.6 3.2 0.00 0.00 0.00 56 1021.4
20260508134814 11 74 1.6 1.6 0.00 0.00 0.00 59 1021.1
20260508134311 11 54 0.0 0.0 0.00 0.00 0.00 59 1021.0
20260508133807 11 67 0.0 0.0 0.00 0.00 0.00 60 1021.1
20260508133305 10 77 1.6 1.6 0.00 0.00 0.00 60 1021.0
20260508132802 10 25 0.0 0.0 0.00 0.00 0.00 63 1021.0
20260508132300 10 38 0.0 0.0 0.00 0.00 0.00 62 1021.0
20260508131755 10 16 0.0 0.0 0.00 0.00 0.00 61 1020.8
20260508131252 10 94 0.0 1.6 0.00 0.00 0.00 65 1020.9
20260508130748 10 33 0.0 1.6 0.00 0.00 0.00 65 1021.0
20260508130246 10 23 0.0 0.0 0.00 0.00 0.00 67 1020.8
20260508125741 10 34 0.0 0.0 0.00 0.00 0.00 67 1020.9
20260508125238 9 40 0.0 0.0 0.00 0.00 0.00 64 1020.8
20260508124736 9 8 0.0 0.0 0.00 0.00 0.00 69 1020.9
20260508124233 9 7 0.0 0.0 0.00 0.00 0.00 68 1020.7
20260508123731 8 7 0.0 0.0 0.00 0.00 0.00 68 1020.6
20260508123229 8 8 0.0 0.0 0.00 0.00 0.00 71 1020.7
20260508122725 8 7 0.0 0.0 0.00 0.00 0.00 68 1020.6
20260508122222 8 8 0.0 0.0 0.00 0.00 0.00 65 1020.6
20260508121719 8 7 0.0 0.0 0.00 0.00 0.00 68 1020.6
20260508121218 8 8 0.0 0.0 0.00 0.00 0.00 67 1020.6
20260508120715 8 8 0.0 0.0 0.00 0.00 0.00 68 1020.4
20260508120213 8 8 1.6 1.6 0.00 0.00 0.00 69 1020.4
20260508115710 7 8 0.0 0.0 0.00 0.00 0.00 74 1020.4
20260508115207 7 8 0.0 0.0 0.00 0.00 0.00 68 1020.4
20260508114704 7 8 0.0 0.0 0.00 0.00 0.00 70 1020.4
20260508114201 7 8 0.0 0.0 0.00 0.00 0.00 70 1020.2
20260508113657 7 8 0.0 0.0 0.00 0.00 0.00 74 1020.0
20260508113156 7 8 1.6 1.6 0.00 0.00 0.00 71 1020.0
20260508112651 7 8 0.0 0.0 0.00 0.00 0.00 71 1019.9
20260508112149 7 9 0.0 0.0 0.00 0.00 0.00 69 1019.8
20260508111645 6 8 0.0 0.0 0.00 0.00 0.00 68 1019.5
20260508111143 6 9 0.0 0.0 0.00 0.00 0.00 69 1019.8
20260508110640 6 11 0.0 0.0 0.00 0.00 0.00 69 1019.8
20260508110136 6 11 0.0 0.0 0.00 0.00 0.00 70 1019.6
20260508105631 6 11 0.0 0.0 0.00 0.00 0.00 69 1019.3
20260508105129 6 351 1.6 1.6 0.00 0.00 0.00 70 1019.4
20260508104626 6 12 0.0 0.0 0.00 0.00 0.00 67 1019.2
20260508104123 6 346 0.0 0.0 0.00 0.00 0.00 69 1019.2
20260508103620 6 343 0.0 1.6 0.00 0.00 0.00 71 1018.9
20260508103117 6 2 0.0 0.0 0.00 0.00 0.00 70 1018.8
20260508102614 7 125 1.6 1.6 0.00 0.00 0.00 70 1018.8
20260508102112 6 75 0.0 1.6 0.00 0.00 0.00 65 1018.8
20260508101609 7 13 1.6 1.6 0.00 0.00 0.00 66 1018.9
20260508101107 7 12 0.0 0.0 0.00 0.00 0.00 65 1018.6
20260508100604 7 340 1.6 1.6 0.00 0.00 0.00 65 1018.7
20260508095558 7 355 0.0 1.6 0.00 0.00 0.00 63 1018.6
20260508095055 7 359 0.0 0.0 0.00 0.00 0.00 63 1018.5
20260508094552 7 3 0.0 0.0 0.00 0.00 0.00 62 1018.5
20260508094049 7 2 0.0 1.6 0.00 0.00 0.00 63 1018.6
20260508093546 7 4 0.0 0.0 0.00 0.00 0.00 64 1018.2
20260508093044 7 316 1.6 1.6 0.00 0.00 0.00 64 1018.4
20260508092541 7 339 0.0 1.6 0.00 0.00 0.00 66 1018.4
20260508092040 7 3 0.0 0.0 0.00 0.00 0.00 66 1018.4
20260508091536 7 276 3.2 3.2 0.00 0.00 0.00 66 1018.2
20260508091033 7 113 3.2 3.2 0.00 0.00 0.00 63 1018.1
20260508090531 7 68 0.0 0.0 0.00 0.00 0.00 68 1018.0
20260508090027 7 190 3.2 3.2 0.00 0.00 0.00 68 1018.1
20260508085524 7 20 0.0 1.6 0.00 0.00 0.00 66 1018.0
20260508085021 7 75 0.0 1.6 0.00 0.00 0.00 63 1017.9
20260508084518 8 19 0.0 0.0 0.00 0.00 0.00 64 1018.0
20260508084016 8 0 0.0 0.0 0.00 0.00 0.00 64 1018.1
20260508083512 8 269 1.6 1.6 0.00 0.00 0.00 64 1018.1
20260508083009 8 227 1.6 1.6 0.00 0.00 0.00 61 1018.0
20260508082505 8 223 0.0 0.0 0.00 0.00 0.00 61 1018.1
20260508082003 8 215 1.6 1.6 0.00 0.00 0.00 61 1018.0
20260508081500 7 274 0.0 1.6 0.00 0.00 0.00 63 1017.8
20260508080955 7 69 0.0 0.0 0.00 0.00 0.00 68 1017.6
20260508080454 8 325 1.6 1.6 0.00 0.00 0.00 68 1017.7
20260508075950 7 194 4.8 4.8 0.00 0.00 0.00 68 1017.6
20260508075447 8 198 1.6 3.2 0.00 0.00 0.00 68 1017.8
20260508074945 8 349 1.6 1.6 0.00 0.00 0.00 68 1017.7
20260508074443 8 107 1.6 1.6 0.00 0.00 0.00 68 1017.6
20260508073939 8 174 1.6 3.2 0.00 0.00 0.00 68 1017.6
20260508073437 8 58 0.0 0.0 0.00 0.00 0.00 68 1017.5
20260508072933 8 336 0.0 1.6 0.00 0.00 0.00 67 1017.6
20260508072430 8 86 1.6 1.6 0.00 0.00 0.00 67 1017.4
20260508071927 8 73 0.0 1.6 0.00 0.00 0.00 68 1017.4
20260508071425 8 72 0.0 0.0 0.00 0.00 0.00 66 1017.6
20260508070922 8 89 0.0 1.6 0.00 0.00 0.00 68 1017.5
20260508070420 9 109 1.6 1.6 0.00 0.00 0.00 65 1017.6
20260508065918 9 333 1.6 1.6 0.00 0.00 0.00 66 1017.4
20260508065416 8 214 4.8 4.8 0.00 0.00 0.00 66 1017.4
20260508064914 9 67 1.6 3.2 0.00 0.00 0.00 69 1017.4
20260508064411 9 89 1.6 1.6 0.00 0.00 0.00 68 1017.4
20260508063909 9 19 0.0 0.0 0.00 0.00 0.00 70 1017.5
20260508063406 9 298 0.0 1.6 0.00 0.00 0.00 67 1017.3
20260508062903 10 26 1.6 1.6 0.00 0.00 0.00 66 1017.3
20260508062401 10 30 0.0 0.0 0.00 0.00 0.00 68 1017.2
20260508061857 10 39 0.0 0.0 0.00 0.00 0.00 67 1017.5
20260508061355 10 21 0.0 1.6 0.00 0.00 0.00 68 1017.3
20260508060851 10 31 1.6 6.4 0.00 0.00 0.00 68 1017.4
20260508060349 10 48 0.0 1.6 0.00 0.00 0.00 68 1017.5
20260508055844 10 42 0.0 1.6 0.00 0.00 0.00 67 1017.5
20260508055342 10 27 1.6 1.6 0.00 0.00 0.00 68 1017.9
20260508054838 10 18 0.0 0.0 0.00 0.00 0.00 69 1017.5
20260508054335 10 334 1.6 3.2 0.00 0.00 0.00 68 1017.8
20260508053832 10 293 3.2 3.2 0.00 0.00 0.00 69 1017.6
20260508053330 10 29 1.6 3.2 0.00 0.00 0.00 68 1017.4
20260508052827 10 28 1.6 1.6 0.00 0.00 0.00 68 1017.6
20260508052324 10 274 1.6 3.2 0.00 0.00 0.00 68 1017.4
20260508051820 10 270 1.6 1.6 0.00 0.00 0.00 68 1017.5
20260508051316 10 49 0.0 1.6 0.00 0.00 0.00 67 1017.4
20260508050812 10 145 1.6 3.2 0.00 0.00 0.00 67 1017.4
20260508050309 10 304 6.4 6.4 0.00 0.00 0.00 69 1017.3
20260508045805 10 37 1.6 3.2 0.00 0.00 0.00 69 1017.0
20260508045306 10 258 4.8 11.3 0.00 0.00 0.00 68 1017.1
20260508044800 10 17 6.4 11.3 0.00 0.00 0.00 68 1017.0
20260508044257 10 52 4.8 6.4 0.00 0.00 0.00 68 1017.2
20260508043753 11 272 3.2 4.8 0.00 0.00 0.00 68 1017.2
20260508043250 10 248 3.2 3.2 0.00 0.00 0.00 68 1017.0
20260508042747 10 18 0.0 0.0 0.00 0.00 0.00 72 1017.0
20260508042244 11 188 3.2 4.8 0.00 0.00 0.00 69 1016.9
20260508041741 11 309 1.6 1.6 0.00 0.00 0.00 69 1016.9
20260508041238 10 212 3.2 6.4 0.00 0.00 0.00 68 1016.7
20260508040734 10 16 1.6 1.6 0.00 0.00 0.00 70 1017.0
20260508040231 11 197 4.8 4.8 0.00 0.00 0.00 71 1016.6
20260508035729 11 198 9.7 14.5 0.00 0.05 0.05 68 1016.5
20260508035226 10 234 3.2 4.8 0.00 0.05 0.05 71 1016.6
20260508034722 11 10 0.0 0.0 0.00 0.05 0.05 70 1016.7
20260508034220 10 249 3.2 6.4 0.00 0.05 0.05 70 1016.6
20260508033717 10 58 1.6 1.6 0.00 0.05 0.05 71 1016.6
20260508033215 10 22 1.6 3.2 0.00 0.05 0.05 71 1016.5
20260508032712 10 26 3.2 3.2 0.00 0.05 0.05 71 1016.6
20260508032209 10 92 3.2 6.4 0.00 0.05 0.05 72 1016.4
20260508031706 10 93 0.0 1.6 0.00 0.05 0.05 74 1016.4
20260508031202 11 144 4.8 4.8 0.00 0.05 0.05 71 1016.5
20260508030659 11 27 8.0 12.9 0.00 0.05 0.05 70 1016.2
20260508030156 11 53 3.2 3.2 0.00 0.05 0.05 71 1016.2
20260508025653 11 157 1.6 1.6 0.00 0.05 0.05 71 1016.1
20260508025150 11 234 1.6 3.2 0.00 0.05 0.05 71 1015.8
20260508024645 11 31 0.0 1.6 0.00 0.05 0.05 70 1016.0
20260508024143 11 248 4.8 6.4 0.00 0.05 0.05 70 1015.9
20260508023639 11 280 3.2 3.2 0.00 0.05 0.05 70 1015.9
20260508023137 11 19 1.6 1.6 0.00 0.05 0.05 70 1016.1
20260508022632 11 24 6.4 11.3 0.00 0.05 0.05 70 1016.0
20260508022130 11 13 6.4 14.5 0.00 0.05 0.05 71 1015.9
20260508021625 11 33 1.6 3.2 0.00 0.05 0.05 70 1016.1
20260508021121 11 273 3.2 4.8 0.00 0.05 0.05 71 1015.8
20260508020620 11 28 1.6 4.8 0.00 0.05 0.05 71 1015.6
20260508020117 11 287 1.6 3.2 0.00 0.05 0.05 71 1015.7
20260508015614 10 40 4.8 6.4 0.00 0.05 0.05 72 1015.8
20260508015111 10 168 1.6 1.6 0.00 0.05 0.05 71 1015.7
20260508014607 10 29 3.2 3.2 0.00 0.05 0.05 71 1015.5
20260508014104 10 178 4.8 4.8 0.00 0.05 0.05 71 1015.3
20260508013559 10 200 4.8 6.4 0.00 0.05 0.05 73 1015.3
20260508013057 10 57 1.6 1.6 0.00 0.05 0.05 74 1015.2
20260508012554 10 126 1.6 1.6 0.00 0.05 0.05 71 1015.2
20260508012051 10 59 0.0 0.0 0.00 0.05 0.05 72 1015.0
20260508011550 10 54 1.6 1.6 0.00 0.05 0.05 76 1015.1
20260508011047 10 200 3.2 3.2 0.00 0.05 0.05 77 1014.9
20260508010543 10 26 1.6 1.6 0.00 0.05 0.05 75 1014.6
20260508010041 10 33 1.6 1.6 0.00 0.05 0.05 76 1014.6
20260508005537 10 103 1.6 1.6 0.00 0.05 0.05 78 1014.3
20260508005034 10 149 1.6 1.6 0.00 0.05 0.05 76 1014.4
20260508004530 10 209 3.2 4.8 0.00 0.05 0.05 74 1014.4
20260508004027 10 161 3.2 4.8 0.00 0.05 0.05 74 1014.5
20260508003523 11 92 1.6 1.6 0.00 0.05 0.05 76 1014.7
20260508003021 11 69 0.0 0.0 0.00 0.05 0.05 72 1014.7
20260508002517 11 25 3.2 4.8 0.00 0.05 0.05 73 1014.8
20260508002015 11 121 3.2 4.8 0.00 0.05 0.05 75 1014.6
20260508001510 11 71 0.0 0.0 0.00 0.05 0.05 74 1014.8
20260508001007 11 149 3.2 3.2 0.00 0.05 0.05 73 1014.8
20260508000502 11 87 1.6 1.6 0.00 0.05 0.05 70 1014.8
20260508000000 11 70 0.0 0.0 0.00 0.05 0.05 69 1014.7
20260507235456 11 42 0.0 1.6 0.00 0.05 0.05 71 1014.8
20260507234954 11 53 0.0 1.6 0.00 0.05 0.05 69 1014.8
20260507234450 12 294 1.6 3.2 0.00 0.05 0.05 68 1014.6
20260507233947 12 26 1.6 3.2 0.00 0.05 0.05 67 1014.5
20260507233444 12 174 3.2 4.8 0.00 0.05 0.05 70 1014.7
20260507232942 12 53 3.2 3.2 0.00 0.05 0.05 66 1014.4
20260507232438 12 26 1.6 3.2 0.00 0.05 0.05 68 1014.2
20260507231936 12 22 3.2 4.8 0.00 0.05 0.05 74 1014.1
20260507231432 12 61 0.0 0.0 0.00 0.05 0.05 72 1014.4
20260507230929 12 237 9.7 11.3 0.00 0.05 0.05 67 1014.2
20260507230426 12 36 3.2 4.8 0.00 0.05 0.05 67 1014.2
20260507225926 12 42 4.8 11.3 0.00 0.05 0.05 68 1013.8
20260507225423 12 145 6.4 9.7 0.00 0.05 0.05 67 1014.2
20260507224919 12 50 3.2 3.2 0.00 0.05 0.05 71 1014.0
20260507224415 13 31 3.2 4.8 0.00 0.05 0.05 72 1014.1
20260507223912 13 34 3.2 3.2 0.00 0.05 0.05 72 1013.8
20260507223408 14 18 9.7 12.9 0.00 0.05 0.05 65 1014.4
20260507222905 15 65 0.0 1.6 0.00 0.05 0.05 72 1014.1
20260507222401 15 13 0.0 1.6 0.00 0.05 0.05 65 1014.4
20260507221858 15 23 3.2 4.8 0.00 0.05 0.05 64 1014.0
20260507221355 15 74 1.6 3.2 0.00 0.05 0.05 67 1013.8
20260507220851 15 23 1.6 3.2 0.00 0.05 0.05 70 1013.8
20260507220349 13 51 3.2 4.8 0.00 0.05 0.05 72 1014.1
20260507215845 13 18 4.8 6.4 0.00 0.05 0.05 75 1013.7
20260507215342 13 253 3.2 4.8 0.00 0.05 0.05 74 1013.8
20260507214839 13 280 4.8 6.4 0.00 0.05 0.05 74 1013.8
20260507214338 14 55 4.8 6.4 0.00 0.05 0.05 73 1013.8
20260507213837 15 27 3.2 9.7 0.00 0.05 0.05 71 1013.8
20260507213335 15 30 6.4 11.3 0.00 0.05 0.05 70 1013.4
20260507212831 15 29 1.6 1.6 0.00 0.05 0.05 68 1013.2
20260507212327 16 41 1.6 3.2 0.00 0.05 0.05 65 1013.4
20260507211824 16 19 0.0 0.0 0.00 0.05 0.05 65 1013.1
20260507211321 16 46 4.8 9.7 0.00 0.05 0.05 64 1013.0
20260507210818 17 9 6.4 6.4 0.00 0.05 0.05 63 1013.1
20260507210315 17 263 1.6 4.8 0.00 0.05 0.05 64 1013.0
20260507205811 18 25 3.2 4.8 0.00 0.05 0.05 62 1012.6
20260507205308 18 32 0.0 0.0 0.00 0.05 0.05 62 1012.8
20260507204804 20 103 1.6 1.6 0.00 0.05 0.05 63 1012.7
20260507204302 20 215 3.2 3.2 0.00 0.05 0.05 58 1012.7
20260507203800 20 45 1.6 1.6 0.00 0.05 0.05 58 1012.5
20260507203257 20 23 1.6 3.2 0.00 0.05 0.05 60 1012.3
20260507202753 20 32 1.6 3.2 0.00 0.05 0.05 57 1012.5
20260507202249 20 28 0.0 0.0 0.00 0.05 0.05 59 1012.3
20260507201744 20 243 3.2 4.8 0.00 0.05 0.05 59 1012.3
20260507201241 20 17 3.2 3.2 0.00 0.05 0.05 61 1012.3
20260507200737 19 6 1.6 1.6 0.00 0.05 0.05 64 1012.3
20260507200233 20 277 8.0 9.7 0.00 0.05 0.05 60 1012.3
20260507195730 20 46 3.2 3.2 0.00 0.05 0.05 57 1012.3
20260507195227 20 37 3.2 3.2 0.00 0.05 0.05 58 1012.2
20260507194724 20 37 3.2 6.4 0.00 0.05 0.05 57 1012.3
20260507194220 20 213 3.2 4.8 0.00 0.05 0.05 59 1012.2
20260507193717 21 19 4.8 4.8 0.00 0.05 0.05 58 1012.5
20260507193214 21 17 1.6 3.2 0.00 0.05 0.05 57 1012.5
20260507192710 21 65 4.8 9.7 0.00 0.05 0.05 56 1012.5
20260507192207 21 26 1.6 3.2 0.00 0.05 0.05 56 1012.3
20260507191702 21 251 1.6 3.2 0.00 0.05 0.05 60 1012.7
20260507191200 20 301 1.6 3.2 0.00 0.05 0.05 60 1012.7
20260507190657 20 12 3.2 3.2 0.00 0.05 0.05 58 1012.7
20260507190155 21 272 4.8 6.4 0.00 0.05 0.05 59 1012.6
20260507185654 21 171 3.2 3.2 0.00 0.05 0.05 59 1012.9
20260507185150 21 338 4.8 6.4 0.00 0.05 0.05 62 1012.7
20260507184648 21 31 3.2 4.8 0.00 0.05 0.05 59 1012.8
20260507184146 21 354 3.2 3.2 0.00 0.05 0.05 59 1012.6
20260507183642 22 192 3.2 4.8 0.00 0.05 0.05 58 1012.7
20260507183139 21 56 1.6 1.6 0.00 0.05 0.05 63 1012.6
20260507182636 21 23 1.6 1.6 0.00 0.05 0.05 65 1012.8
20260507182131 20 43 1.6 1.6 0.00 0.05 0.05 68 1012.9
20260507181628 20 357 3.2 3.2 0.00 0.05 0.05 66 1012.8
20260507181124 21 291 4.8 6.4 0.00 0.05 0.05 63 1012.8
20260507180620 21 25 1.6 1.6 0.00 0.05 0.05 65 1012.6
20260507180118 21 43 3.2 3.2 0.00 0.05 0.05 64 1012.5
20260507175614 21 28 8.0 11.3 0.00 0.05 0.05 64 1012.6
20260507175111 21 255 4.8 4.8 0.00 0.05 0.05 69 1012.5
20260507174608 21 36 1.6 1.6 0.00 0.05 0.05 67 1012.2
20260507174106 20 1 0.0 1.6 0.00 0.05 0.05 71 1012.5
20260507173603 20 176 6.4 6.4 0.00 0.05 0.05 81 1012.2
20260507173100 20 45 0.0 0.0 0.00 0.05 0.05 85 1012.5
20260507172556 20 38 1.6 1.6 0.00 0.05 0.05 83 1012.5
20260507172053 20 34 1.6 1.6 0.00 0.05 0.05 90 1012.3
20260507171548 19 67 0.0 1.6 0.00 0.05 0.05 90 1012.3
20260507171046 18 42 0.0 0.0 0.00 0.05 0.05 91 1012.5
20260507170542 18 34 0.0 0.0 0.00 0.05 0.05 90 1012.3
20260507170039 18 5 0.0 0.0 0.00 0.05 0.05 90 1012.5
20260507165535 18 44 0.0 0.0 0.00 0.05 0.05 91 1012.7
20260507165032 18 42 0.0 0.0 0.00 0.05 0.05 92 1012.5
20260507164528 19 41 1.6 1.6 0.00 0.05 0.05 91 1012.6
20260507164025 19 40 1.6 1.6 0.00 0.05 0.05 91 1012.8
20260507163522 19 46 0.0 0.0 0.00 0.05 0.05 91 1012.8
20260507163020 19 46 0.0 0.0 0.00 0.05 0.05 90 1012.9
20260507162515 20 46 1.6 1.6 0.00 0.05 0.05 88 1012.7
20260507162012 20 51 0.0 1.6 0.00 0.05 0.05 87 1012.9
20260507161508 20 67 1.6 1.6 0.00 0.05 0.05 87 1012.9
20260507161005 20 67 0.0 1.6 0.00 0.05 0.05 91 1012.9
20260507160501 19 46 0.0 0.0 0.00 0.05 0.05 91 1012.9
20260507155956 18 59 0.0 0.0 0.00 0.05 0.05 92 1012.8
20260507155453 18 46 0.0 0.0 0.00 0.05 0.05 96 1012.8
20260507154950 17 51 0.0 1.6 0.00 0.05 0.05 97 1012.8
20260507154447 17 41 0.0 0.0 0.00 0.05 0.05 97 1012.9
20260507153944 17 41 0.0 0.0 0.00 0.05 0.05 97 1012.9
20260507153441 17 41 0.0 0.0 0.00 0.05 0.05 96 1013.0
20260507152937 17 41 0.0 0.0 0.00 0.05 0.05 96 1013.2
20260507152433 17 57 0.0 0.0 0.00 0.05 0.05 96 1013.1
20260507151929 17 57 0.0 0.0 0.00 0.05 0.05 96 1013.0
20260507151426 17 57 0.0 0.0 0.00 0.05 0.05 96 1013.0
20260507150923 17 57 0.0 0.0 0.00 0.05 0.05 96 1013.1
20260507150420 17 58 1.6 1.6 0.00 0.05 0.05 95 1013.1
20260507145916 17 54 1.6 1.6 0.00 0.05 0.05 95 1013.1